Voltar ao catálogo

STARLINK-36694

AtivoComunicaçõesSSO
NORAD 67653·PAYLOAD·🇺🇸 United States

Lançado Feb 2, 2026 de Vandenberg Space Force Base

Loading…

Próximas Passagens (próximas 24 horas)

TLE

AtualizadoSource: CelesTrak SupGP

Época: Sep 14, 2026, 21:14 UTC

1 67653C 26022F   26257.88520833  .00004692  00000+0  14567-3 0  2571
2 67653  97.2839 289.4738 0001146 102.7771 234.7471 15.33433705    18

Acompanhe STARLINK-36694 em tempo real com AllMySat

Download on the App Store